Wind_Speed
51 53 55 51 43 38 40 44 47 46 46 49 51 52 52 52 50 45 44 41 42 49 50 49 50 48 45 43 39 35 35 37 35 34 36 36 37 38 38 38 36 36 35 33 36 38 39 39 38 37 36 37 36 36 36 34 34 34 33 33 32 33 34 36 38 39 39 40 40 41 41 41 40 40 40 38 36 35 34 34 35 36 36 35 35 36
52 55 54 47 41 41 45 46 47 48 49 51 52 53 53 52 49 46 46 44 45 51 51 50 51 48 46 45 42 38 35 35 34 32 32 33 36 39 39 38 36 36 35 35 36 36 37 38 38 38 37 36 37 37 37 36 35 35 34 34 35 36 37 38 39 40 40 40 40 40 40 39 39 39 38 37 36 36 36 36 36 36 36 37 37 38
54 56 51 45 44 46 48 47 48 49 51 52 52 53 53 51 50 49 48 46 48 51 50 51 53 50 48 46 42 40 36 34 34 31 29 29 31 35 37 37 36 35 34 34 35 35 38 40 39 39 38 38 39 39 38 38 37 37 37 37 37 38 38 39 40 40 40 41 41 40 39 38 37 37 37 37 37 37 36 37 37 37 38 38 39 39
55 54 48 45 47 48 48 48 49 50 51 52 52 53 53 50 50 52 52 50 50 51 50 51 52 50 49 46 42 38 34 32 32 32 30 28 27 28 30 33 35 33 33 34 35 37 41 42 41 40 40 41 42 41 40 41 40 39 39 39 39 39 39 40 40 41 42 41 41 40 39 38 38 38 37 37 37 37 37 38 38 39 39 40 40 39
54 52 48 48 48 49 49 50 50 50 51 52 52 52 52 50 51 53 53 53 52 51 51 51 51 48 47 46 40 35 33 32 33 34 33 29 28 30 29 31 34 34 34 35 36 38 41 43 42 42 42 43 43 43 43 43 43 41 41 40 40 40 40 40 40 41 41 40 40 40 39 39 38 37 37 36 37 38 39 40 40 40 40 40 40 39
52 49 47 48 48 48 50 50 49 49 51 53 52 51 50 51 53 53 52 53 53 52 52 52 51 46 43 45 41 36 35 34 34 34 32 29 29 32 32 31 33 34 34 36 37 39 40 42 43 44 44 45 45 45 45 45 44 43 42 42 42 41 41 41 41 40 39 38 39 39 38 37 37 37 37 38 40 41 41 41 41 41 41 40 39 38
52 46 45 47 48 49 50 51 47 45 50 54 53 50 49 51 52 52 52 53 52 52 53 53 54 49 42 43 43 39 37 36 34 32 31 28 25 28 31 31 30 31 33 35 37 39 40 41 43 44 46 47 47 47 47 45 44 44 44 43 43 42 42 42 41 40 39 38 39 39 39 39 39 39 40 41 43 43 42 42 42 42 41 40 39 38
49 45 45 46 48 51 52 49 45 44 50 54 52 51 51 51 52 52 53 54 53 53 53 53 57 55 46 41 43 43 41 39 35 33 31 28 23 22 27 31 31 29 31 34 36 37 39 41 42 43 46 47 47 47 47 45 44 44 44 44 44 44 44 44 43 42 40 40 41 42 42 42 42 42 43 45 45 44 43 43 43 42 41 40 39 39
48 47 47 47 49 51 50 48 46 48 51 52 52 53 54 54 54 54 54 55 55 54 53 53 56 57 50 43 46 48 46 43 39 38 38 34 29 24 24 30 32 31 29 30 34 37 39 41 43 44 46 47 47 47 47 45 44 44 43 44 44 44 45 45 44 44 43 43 43 44 45 44 44 45 46 46 46 45 44 43 43 42 40 40 39 39
50 50 50 51 52 50 49 50 50 51 51 51 52 54 55 55 55 55 55 55 56 55 54 54 55 56 51 44 46 49 49 49 47 47 47 44 40 34 28 29 32 32 31 29 31 34 37 40 43 45 46 47 47 47 47 45 44 44 43 43 43 43 44 44 44 45 45 46 45 46 46 46 46 47 47 47 46 44 43 42 42 41 40 40 40 40
52 52 53 54 52 51 52 53 53 53 53 52 52 52 54 55 55 57 57 56 59 57 53 54 54 55 52 47 48 50 51 54 55 54 54 52 51 47 39 34 33 32 31 32 33 32 34 38 41 44 45 47 48 47 47 48 47 46 45 43 42 42 43 43 44 45 45 46 45 45 46 46 47 48 48 47 45 43 42 41 40 40 40 40 41 42
54 55 55 54 54 54 55 55 55 54 53 52 51 51 52 54 56 57 58 59 61 58 53 54 54 54 54 52 52 54 56 58 58 59 60 58 58 56 50 43 40 36 31 33 37 38 37 39 39 41 43 45 48 49 49 50 50 49 46 44 43 42 42 43 43 44 44 45 45 45 46 47 47 47 46 45 43 42 41 40 40 40 40 41 42 43
52 53 54 54 54 54 54 55 54 53 52 51 51 51 52 54 57 60 61 61 62 59 56 56 56 58 59 57 57 59 59 60 60 61 64 63 62 61 59 53 48 44 38 33 35 39 42 44 43 41 42 44 45 47 49 50 51 49 47 46 44 43 43 43 43 43 43 44 44 44 45 45 45 44 43 43 42 42 41 41 41 41 42 43 44 45
50 49 49 50 50 49 51 52 52 53 53 53 53 53 53 55 59 62 61 62 62 61 59 58 60 65 66 62 61 61 60 62 63 64 64 65 64 62 62 61 55 52 47 38 33 34 38 44 47 46 46 46 44 45 46 48 49 49 48 47 46 45 45 44 44 44 43 43 43 43 42 42 43 43 43 43 43 42 42 43 43 43 44 45 45 46
52 49 47 49 49 48 50 51 52 53 54 55 55 54 56 58 60 60 59 60 63 63 62 63 67 72 70 67 65 64 64 66 68 68 66 64 63 61 62 64 61 58 55 47 37 33 34 41 46 48 49 50 48 47 47 47 48 49 48 48 48 47 47 47 47 46 46 45 44 44 44 44 44 45 45 44 44 43 43 44 45 46 47 47 47 48
55 52 48 53 55 52 52 53 53 54 55 56 56 58 60 59 56 57 57 59 61 63 66 71 75 77 74 72 70 68 69 69 70 71 70 66 64 62 62 63 64 62 61 58 49 41 38 40 43 46 49 51 51 49 49 49 50 51 50 50 50 50 49 50 51 50 50 49 48 47 47 47 46 46 46 46 45 45 46 47 47 48 48 48 49 50
60 57 53 57 61 59 59 58 57 58 59 60 61 62 62 59 57 60 63 62 62 66 70 74 78 79 76 75 73 70 71 71 70 70 70 68 67 65 63 63 64 63 64 65 60 53 48 45 45 46 48 51 51 51 51 51 52 53 53 53 53 54 54 53 54 54 53 52 51 51 50 49 48 47 47 47 47 48 48 49 50 50 50 49 50 51
63 62 60 61 64 66 66 65 65 65 65 65 66 65 65 65 66 67 69 69 70 73 76 76 77 77 76 76 75 72 72 71 71 71 70 69 67 66 64 64 64 65 65 65 63 60 55 50 46 47 49 51 53 54 55 55 55 56 56 56 56 57 58 57 56 56 56 54 53 52 52 51 50 50 49 49 50 50 51 51 52 52 52 52 53 54
63 64 65 66 69 71 70 71 72 72 72 71 70 70 70 71 72 72 73 73 74 76 78 77 78 78 77 76 75 73 71 70 70 71 70 67 67 67 67 66 67 68 68 67 65 63 59 53 47 46 48 50 53 57 58 59 59 59 59 59 59 60 61 60 58 57 56 55 54 53 53 52 52 53 52 52 52 53 53 53 54 54 55 55 56 57
63 64 65 63 65 69 70 72 74 74 73 72 71 71 70 71 71 71 72 72 72 74 75 77 78 77 75 73 72 71 70 69 68 67 66 65 64 65 66 68 69 69 68 69 69 66 63 59 54 50 49 49 51 55 57 58 60 61 62 61 59 58 59 59 57 56 56 56 55 54 54 54 55 55 54 55 55 55 55 55 56 57 58 58 59 59
65 67 68 63 62 67 69 71 72 70 69 69 68 67 67 67 67 67 67 66 68 71 74 75 77 75 68 61 63 67 67 67 66 65 64 63 63 63 63 65 68 68 69 70 71 70 67 66 63 58 54 51 51 54 55 54 56 59 61 63 59 54 55 57 58 56 56 56 56 56 56 56 56 56 57 57 57 57 57 58 59 60 60 60 60 62
71 73 75 72 70 72 71 71 71 71 70 69 68 67 67 65 61 61 63 62 64 70 73 74 77 75 63 49 51 59 63 65 66 65 64 63 63 64 63 63 65 67 69 72 72 70 68 67 66 62 60 56 54 56 56 53 53 56 58 62 60 54 52 55 58 59 58 56 56 56 56 57 58 58 58 59 59 59 59 61 62 63 62 62 62 63
74 74 77 78 78 77 75 75 75 74 72 70 70 68 66 64 61 61 63 60 60 65 67 69 75 75 64 51 50 56 60 63 65 66 68 67 67 67 66 66 67 66 65 67 70 69 67 66 63 60 61 59 53 53 57 56 54 55 56 60 62 58 54 55 57 59 60 59 58 58 59 60 61 62 62 61 60 60 61 63 64 64 63 63 63 63
74 75 77 79 81 81 79 78 77 75 71 70 69 66 62 61 59 59 60 58 60 62 62 67 73 73 64 55 53 55 58 62 64 65 66 68 69 70 71 70 68 64 59 58 60 61 60 61 59 56 56 55 49 50 55 56 56 57 57 59 64 64 63 62 61 61 61 61 61 62 63 64 64 65 64 63 62 62 63 64 64 64 63 62 62 63
76 77 79 79 81 83 83 82 80 78 74 73 72 68 66 65 63 65 67 69 73 73 71 76 82 76 66 58 53 50 50 53 57 61 65 69 70 72 74 72 65 59 56 54 52 53 54 57 58 56 54 53 52 53 55 54 54 55 56 59 63 66 67 68 67 65 64 63 63 64 65 65 66 66 66 65 64 63 64 64 64 63 62 62 62 63
77 78 79 80 81 83 84 83 81 79 78 78 77 76 75 74 74 78 81 83 86 86 85 89 90 86 79 72 66 59 54 52 52 53 57 63 68 70 72 70 63 58 58 58 56 56 57 57 57 56 55 55 56 59 59 59 58 58 59 62 65 67 69 71 69 66 64 62 62 62 64 65 65 65 64 63 63 62 63 63 62 60 60 61 63 64
77 78 79 80 81 83 84 83 81 80 81 82 83 82 81 80 81 83 86 89 91 92 93 94 93 92 88 82 76 73 71 69 66 61 59 61 65 68 69 67 65 63 63 64 64 64 62 60 58 57 57 57 58 59 61 63 63 64 66 69 72 73 73 72 69 65 61 59 58 59 61 62 61 59 58 58 58 58 59 59 59 59 60 62 64 65
77 77 78 79 80 80 81 81 81 80 81 81 81 81 81 80 80 81 84 87 87 89 93 94 91 91 89 85 82 81 79 78 77 76 76 75 76 77 75 72 70 68 67 68 69 68 67 65 63 64 65 66 65 64 65 66 66 65 65 66 69 71 71 69 67 65 62 59 56 56 56 57 58 58 58 58 58 60 61 63 64 64 64 65 66 67
77 77 77 78 78 76 75 76 77 79 80 80 78 77 76 76 75 77 81 84 85 86 89 87 85 86 87 83 80 79 76 76 76 77 80 83 85 87 85 82 79 76 74 75 77 78 78 78 77 77 78 77 77 76 76 75 74 73 71 67 65 65 65 67 68 68 67 62 58 56 56 58 59 59 60 62 63 64 65 66 67 67 66 66 67 68
76 76 76 76 76 74 73 74 74 74 76 76 75 74 73 74 75 78 81 82 82 84 85 83 83 82 79 75 72 70 70 71 73 75 77 79 82 85 87 88 89 89 89 89 91 92 92 92 91 89 88 88 88 87 86 85 84 84 83 79 75 70 68 69 69 68 67 64 61 61 63 64 65 65 66 68 69 68 67 66 66 66 66 67 69 70
72 74 76 76 76 75 74 73 72 70 69 71 73 72 72 74 78 80 80 78 79 81 82 81 79 76 73 70 70 71 71 73 74 75 76 78 78 79 81 84 87 90 94 96 96 97 98 98 98 96 94 93 92 89 86 84 83 82 81 80 78 76 74 73 72 71 71 71 71 73 74 75 74 74 75 75 72 69 66 66 67 68 68 69 71 73
69 71 71 70 71 71 68 67 68 66 64 66 70 71 72 74 76 77 77 76 76 77 78 78 78 80 80 80 80 80 79 78 76 75 74 74 74 74 75 76 78 81 85 89 91 92 94 95 97 98 97 97 93 88 84 81 79 77 76 75 75 75 76 76 77 77 77 77 78 80 81 82 83 82 79 74 69 66 66 68 69 69 70 71 73 75
67 68 66 64 67 70 69 69 71 70 70 71 70 69 69 68 68 70 71 72 74 77 79 79 79 80 82 81 80 78 77 75 72 71 70 69 67 65 65 67 69 72 75 78 81 82 83 85 88 91 94 95 95 92 87 84 81 78 77 76 74 73 73 73 74 75 75 77 79 81 82 83 83 81 76 71 67 66 68 70 71 71 72 74 76 76
68 69 70 71 77 81 79 78 79 79 82 82 78 75 75 74 75 77 78 79 83 86 87 85 82 81 81 79 74 70 67 68 69 69 69 68 66 64 64 65 66 67 68 71 74 77 78 79 80 82 85 88 90 90 89 86 83 81 79 78 76 75 73 72 73 73 75 78 80 80 79 79 78 76 73 70 68 68 70 72 73 75 75 76 77 77
69 70 72 74 78 82 81 80 83 86 87 85 81 80 81 82 84 87 88 89 90 90 90 88 88 88 87 85 83 79 78 79 81 81 80 80 79 78 77 77 77 75 73 72 73 74 75 75 73 73 75 79 81 84 85 85 84 83 82 81 80 79 78 77 77 77 78 80 79 77 76 75 75 73 72 71 70 71 73 75 76 77 76 76 75 75
71 71 72 74 76 79 79 80 85 87 85 82 82 82 82 82 83 85 88 91 92 91 89 89 89 90 89 88 89 90 90 91 92 93 94 94 94 93 92 91 90 89 87 85 83 81 80 79 76 76 78 80 82 82 82 83 83 82 83 83 84 85 85 85 84 81 80 80 79 77 76 76 76 75 74 74 75 77 78 79 78 76 75 74 73 73
73 74 75 76 77 78 80 82 85 86 84 83 83 83 84 84 85 86 88 89 90 88 88 87 87 86 85 84 83 83 84 84 85 86 89 90 89 88 86 85 84 84 86 89 91 92 93 93 93 92 93 92 91 90 89 89 89 89 89 89 89 89 89 87 82 78 76 77 79 79 78 78 79 79 78 78 80 82 83 81 79 76 75 74 74 73
75 76 76 78 78 78 80 82 83 83 83 82 80 79 80 79 79 80 81 82 81 79 77 75 74 73 74 73 72 71 70 69 68 67 69 72 74 73 71 71 71 71 72 74 77 80 82 85 86 87 87 87 87 87 87 87 87 86 85 84 83 82 80 77 74 73 74 75 77 78 80 80 80 81 81 81 83 84 83 79 76 74 73 74 74 74
74 75 75 76 77 77 77 78 79 78 79 79 77 76 76 75 75 77 79 82 81 79 78 74 69 67 67 67 67 67 65 63 61 57 56 58 60 61 62 62 66 69 67 63 64 66 67 68 69 70 72 73 73 72 72 72 72 72 73 74 75 75 74 72 71 72 73 74 74 75 77 79 80 79 80 80 81 80 77 74 71 70 69 70 71 73
72 72 73 75 75 75 75 77 78 79 79 79 78 78 78 78 79 80 83 85 85 85 86 86 82 79 77 74 73 71 69 68 66 61 60 61 60 60 61 61 64 67 67 65 66 68 69 68 67 68 68 68 68 69 70 72 73 75 76 76 75 75 74 73 72 72 73 73 73 71 71 73 75 74 73 73 74 74 74 73 72 70 69 70 72 74
71 71 71 72 73 72 73 75 77 77 77 77 76 76 76 77 78 80 82 85 84 84 87 89 90 90 89 89 89 87 86 86 83 78 75 74 74 74 74 74 74 75 76 77 77 77 77 76 75 74 73 74 77 79 82 84 86 87 87 84 81 78 76 75 75 74 74 75 75 72 70 70 71 70 71 72 74 76 78 79 78 76 75 75 76 78
70 70 70 70 70 70 71 73 75 76 75 74 74 73 73 74 76 78 80 82 83 84 85 88 89 90 91 92 93 94 94 95 96 95 93 92 91 91 91 92 92 91 91 90 90 89 89 89 88 87 87 87 88 90 92 94 94 92 89 86 83 80 78 78 78 78 77 78 78 76 74 72 71 72 74 76 78 81 82 82 80 78 78 79 80 80
68 69 69 68 68 68 70 71 73 73 72 71 71 70 70 72 74 75 77 79 80 81 83 84 86 88 90 91 92 93 94 95 96 98 99 99 99 99 100 102 102 102 100 99 96 94 95 96 96 97 96 94 93 94 97 96 92 87 84 82 81 79 77 77 78 79 78 77 76 75 74 73 74 76 77 79 81 81 80 79 78 77 77 78 78 76
66 66 66 65 65 67 70 72 72 71 69 68 69 69 69 70 72 74 76 78 79 80 81 83 83 85 87 88 89 90 91 92 93 94 95 96 96 96 98 100 102 103 102 101 99 97 96 96 98 100 102 100 96 94 94 94 91 87 81 78 78 77 76 75 76 78 78 76 75 76 77 78 78 79 80 82 83 80 77 75 75 75 74 74 73 73
62 61 63 65 66 68 71 72 70 69 68 67 67 69 69 70 71 73 76 77 78 79 80 81 82 83 84 86 87 88 88 89 90 91 91 92 92 92 93 94 95 96 96 96 97 96 96 95 92 89 90 90 88 87 88 89 89 84 78 76 77 79 81 81 80 79 80 81 81 81 81 81 80 80 81 83 83 81 79 78 78 77 74 73 72 71
61 61 64 66 67 68 70 69 67 67 67 66 66 66 67 69 69 70 72 74 75 76 77 78 79 79 80 82 84 85 86 87 88 89 89 90 90 90 90 91 91 92 92 92 93 92 92 91 86 81 79 78 79 81 82 82 82 80 79 82 87 90 91 90 87 84 82 83 84 84 82 81 81 81 82 82 82 81 81 82 81 79 76 74 73 71
61 61 63 65 66 68 68 66 64 65 65 64 65 65 65 65 65 65 67 69 70 71 72 74 75 76 77 79 81 82 84 85 86 87 88 89 90 90 90 91 91 92 93 94 95 95 94 92 90 89 89 88 88 88 88 88 88 90 93 97 100 100 99 97 94 90 85 82 81 82 82 81 82 82 82 81 80 79 79 78 77 76 75 73 72 73
60 61 63 64 64 67 68 65 63 63 63 62 63 63 63 62 62 62 64 65 66 66 67 69 71 72 73 75 77 79 80 81 82 84 86 87 88 89 89 90 91 92 93 94 96 98 99 99 100 102 103 103 101 99 98 97 97 98 100 103 104 104 102 99 97 95 91 86 82 81 81 81 82 83 83 80 78 76 75 74 74 73 72 71 73 76
60 62 62 62 63 65 66 64 61 59 59 59 59 59 60 61 62 62 63 63 64 64 65 66 67 69 71 72 73 74 75 76 77 79 82 83 85 85 86 87 89 91 92 93 94 96 98 100 104 107 110 111 109 106 105 104 102 100 98 97 96 97 99 100 99 98 95 91 87 84 81 81 82 83 83 80 77 75 74 73 72 71 71 72 75 79
60 61 59 60 64 65 64 62 57 54 55 56 56 58 59 60 61 63 64 64 65 65 65 66 66 66 67 68 69 70 72 73 74 75 78 79 80 81 82 83 85 86 87 88 90 92 94 96 99 102 105 107 108 107 106 105 104 103 101 100 98 98 100 101 102 101 99 95 92 88 84 81 81 82 82 80 77 75 74 73 72 72 74 77 79 80
60 60 58 59 62 63 61 58 53 50 51 53 54 56 59 60 61 63 64 65 66 67 66 65 64 64 63 63 65 67 69 70 72 74 76 77 78 78 79 80 81 81 82 83 85 87 88 90 92 95 98 100 102 104 105 105 105 105 106 109 109 108 106 105 105 103 101 98 95 92 88 85 84 84 84 82 80 79 78 77 76 75 77 79 81 81
Wind_Direction
271 272 273 276 284 287 281 276 276 279 280 280 280 281 283 284 286 291 293 293 294 288 284 285 284 284 286 288 288 286 282 280 280 280 279 277 275 273 271 270 272 275 276 273 271 271 272 272 273 272 270 269 270 271 271 271 271 272 272 273 273 272 270 270 270 271 271 272 272 271 271 271 269 268 268 270 272 270 267 265 265 266 268 270 272 274
271 272 274 279 283 278 273 272 274 276 277 277 279 281 282 284 286 289 290 291 291 286 286 288 287 285 287 288 290 290 290 290 290 286 282 278 274 273 273 273 272 272 273 272 273 274 273 272 272 272 271 270 269 269 269 269 269 269 271 271 270 269 268 268 269 271 272 273 272 270 270 269 267 267 268 270 270 269 267 266 267 268 270 271 273 276
271 272 275 278 275 271 271 273 274 274 275 276 278 280 280 283 286 285 286 288 286 285 286 289 288 286 286 287 289 291 294 296 294 292 288 281 276 276 277 277 274 271 270 269 270 271 273 273 273 273 272 270 269 267 268 267 267 266 266 266 266 267 268 268 270 272 273 272 271 269 268 267 266 266 267 268 267 267 267 268 269 270 271 273 275 277
271 272 273 272 270 271 272 273 273 273 274 275 277 278 279 283 285 283 284 285 284 284 285 287 286 285 286 286 287 291 295 297 295 293 290 287 286 286 284 282 278 273 267 265 265 269 272 273 274 273 272 270 269 269 268 267 266 266 266 266 266 267 268 269 270 271 271 270 268 267 266 265 265 266 266 266 267 268 268 268 270 271 273 276 277 277
271 272 271 271 271 272 272 272 272 272 273 274 275 277 278 281 282 281 283 285 284 283 284 286 284 282 285 286 286 292 295 293 291 289 289 294 298 295 289 285 282 276 268 265 264 266 269 271 273 272 272 271 270 270 269 268 268 268 268 267 267 267 267 268 269 270 269 268 267 266 266 266 266 267 267 268 268 268 269 270 272 274 275 277 277 275
269 270 272 272 272 271 271 270 271 271 273 275 275 275 277 278 279 280 282 283 284 284 285 286 284 281 283 286 291 297 294 288 285 285 288 294 298 296 292 287 284 281 274 269 267 266 267 269 271 272 272 271 270 270 269 270 271 270 269 267 266 266 267 269 271 271 269 266 266 266 265 266 266 267 269 270 270 270 271 272 273 275 275 275 274 273
268 270 271 271 271 270 270 270 271 273 274 275 275 275 276 277 278 279 280 280 282 284 285 285 284 282 281 287 296 300 293 288 287 288 290 296 298 295 294 292 286 281 277 272 268 267 268 269 269 271 273 272 272 271 271 271 271 270 269 269 268 269 269 271 272 272 269 265 263 263 264 265 266 269 271 272 272 273 273 273 273 273 273 272 272 272
269 270 268 268 269 269 270 272 274 274 273 275 277 277 277 276 276 277 277 278 279 280 281 281 282 284 286 291 299 298 292 290 293 294 295 297 298 293 293 296 293 285 278 275 273 271 271 271 271 272 274 274 274 273 272 270 269 268 269 270 270 271 272 272 272 271 269 266 264 263 263 265 268 272 273 273 274 275 274 273 272 272 271 271 271 273
269 268 267 267 267 268 270 273 274 272 273 275 277 277 277 277 276 276 277 277 278 277 277 277 280 286 288 290 294 293 292 295 299 299 299 299 298 294 291 292 294 292 284 276 274 273 272 272 273 274 274 274 273 273 272 272 272 272 271 271 271 271 271 271 271 270 268 267 266 265 266 268 271 273 274 275 276 275 273 272 271 271 272 273 274 276
268 268 268 267 267 269 271 272 271 271 273 274 275 275 277 277 277 277 277 277 277 275 275 278 283 289 289 284 284 286 290 296 299 301 302 301 300 298 295 291 288 289 287 280 272 270 270 271 271 271 272 273 273 273 274 275 276 276 276 275 273 272 271 271 270 270 269 269 268 267 267 269 271 273 275 276 276 274 272 271 271 272 274 276 278 280
266 267 267 267 269 270 270 269 269 270 271 272 273 274 275 275 276 276 275 276 276 275 277 281 284 288 287 280 279 283 288 294 298 302 302 301 299 297 295 292 288 285 283 281 277 273 269 266 265 266 267 270 272 273 274 276 277 278 279 278 276 274 272 271 271 271 270 270 270 269 268 269 271 273 275 276 275 273 272 272 273 274 276 278 280 281
266 266 266 267 268 269 269 269 270 269 269 270 271 271 272 273 273 273 274 275 275 278 283 285 285 285 282 277 279 283 286 291 296 300 299 299 298 296 294 292 288 284 278 275 278 278 274 268 263 262 263 265 268 271 273 274 276 277 278 278 276 274 273 272 272 271 271 271 271 270 270 271 272 273 274 274 273 274 274 275 276 276 277 278 279 280
266 266 267 267 266 267 269 269 270 269 269 268 268 268 269 271 271 271 273 274 276 281 285 285 284 281 275 275 279 282 285 289 291 292 294 296 295 294 294 291 287 284 279 271 270 273 275 274 271 267 265 264 264 267 270 271 273 274 274 274 273 272 272 272 272 273 273 272 271 271 271 271 271 271 271 272 273 274 276 277 277 277 277 278 278 280
268 267 267 268 267 268 268 268 268 268 268 268 267 268 268 269 270 270 272 274 277 281 281 279 278 276 276 278 281 283 285 285 285 286 290 293 292 291 290 289 286 284 280 273 266 264 267 271 274 273 271 270 268 267 267 268 269 270 270 270 270 270 270 270 272 273 274 274 273 272 271 270 271 271 272 272 272 273 275 277 278 278 277 277 278 279
268 266 265 267 267 266 267 268 269 269 268 268 269 269 269 271 272 272 274 276 278 277 275 274 274 276 279 281 282 284 284 283 284 285 288 290 289 288 288 288 287 286 283 277 268 262 262 266 270 271 270 270 269 268 269 269 269 270 270 269 268 268 269 270 272 274 274 273 272 272 271 271 272 273 272 271 271 272 274 275 275 276 276 277 278 279
266 264 263 265 266 266 267 268 269 270 270 269 269 270 272 275 276 275 274 275 275 273 273 275 276 278 280 280 281 282 283 283 284 286 288 290 287 285 284 285 286 288 288 285 278 270 266 265 267 267 265 264 264 266 269 270 271 271 271 272 271 270 270 272 273 275 275 273 272 271 270 271 271 271 271 270 270 270 271 273 273 274 275 276 278 280
268 265 263 265 268 269 270 270 271 272 272 271 271 272 275 277 277 276 275 274 273 272 271 274 276 278 279 279 280 281 282 283 284 285 287 287 285 283 282 282 283 284 285 286 286 284 279 273 268 265 263 261 262 265 267 269 270 270 270 272 273 272 272 272 273 275 274 272 271 271 271 271 271 271 270 269 269 269 271 273 274 275 275 276 278 279
272 270 266 265 268 270 270 272 272 272 273 273 273 274 275 276 275 275 276 276 275 274 273 273 274 276 276 278 281 282 282 284 284 284 284 283 282 282 281 281 281 281 281 282 284 285 285 283 277 270 265 262 263 264 265 266 267 267 267 268 270 270 270 271 272 273 272 270 269 270 270 271 271 270 270 269 269 270 273 274 275 275 276 276 277 278
278 278 273 269 271 272 272 272 273 274 276 277 277 276 275 274 274 274 275 276 275 275 275 274 273 272 273 277 282 283 283 283 283 282 282 282 281 281 282 282 282 282 282 282 281 280 281 283 280 275 271 266 263 262 262 263 264 264 264 264 265 266 267 267 268 268 268 268 268 268 268 268 268 268 268 268 268 269 271 272 273 274 275 275 277 278
280 279 276 272 272 274 275 275 276 278 279 279 279 278 276 274 274 273 273 273 274 274 274 274 273 272 273 277 281 282 281 281 280 279 278 278 278 279 280 282 282 282 282 281 280 280 280 280 277 274 273 269 264 261 260 259 261 263 263 263 262 262 263 264 263 262 263 265 266 266 266 266 266 266 266 265 266 267 269 270 272 273 274 275 277 279
276 275 275 271 268 270 272 275 276 277 277 278 277 277 276 275 275 274 273 272 272 271 270 269 268 270 274 276 277 278 279 278 278 277 277 278 278 277 275 276 277 278 278 277 277 278 280 280 278 276 274 270 264 261 259 256 255 258 260 262 261 259 258 261 261 260 259 260 262 264 265 266 266 266 266 266 267 269 270 271 272 273 273 275 277 279
275 276 277 276 272 270 271 273 275 276 277 279 278 276 276 275 272 272 271 271 271 271 269 268 268 270 272 269 268 272 274 275 276 277 278 278 277 275 272 271 271 273 274 274 274 274 276 277 279 279 276 274 270 266 264 260 255 254 254 256 259 259 256 257 259 260 260 259 260 262 264 265 266 267 267 268 270 271 271 271 271 272 273 275 276 278
275 276 277 277 276 274 273 273 274 276 278 278 276 276 276 273 269 268 268 270 271 272 273 274 274 274 272 266 263 266 269 270 271 272 274 275 274 273 271 270 270 272 273 274 274 274 274 274 276 278 277 277 275 267 264 264 261 257 253 252 255 259 258 256 257 259 261 262 262 262 263 264 265 266 267 268 269 270 270 270 270 270 272 273 275 277
274 273 274 274 274 273 272 272 273 274 275 274 275 276 276 273 270 268 268 270 272 272 273 275 275 275 276 275 272 270 268 268 268 269 269 269 269 270 270 271 270 270 270 273 275 275 274 273 272 272 271 272 267 256 254 259 261 260 256 253 253 256 257 258 258 258 260 261 263 264 264 264 264 265 265 266 268 269 269 268 268 270 271 273 275 278
272 272 272 273 273 273 272 272 272 272 272 271 272 272 271 270 270 270 270 273 273 273 273 275 275 276 279 281 278 274 272 271 269 267 265 265 265 265 267 269 268 265 265 269 272 272 270 268 267 266 264 264 261 256 254 256 258 257 255 252 252 254 256 258 259 260 260 261 263 264 265 265 265 265 265 266 267 268 268 268 269 270 272 274 276 278
273 273 273 274 274 274 274 274 274 274 273 272 271 269 269 269 269 271 273 275 276 276 277 276 277 279 280 278 276 275 274 273 271 268 266 267 267 265 263 265 265 265 264 265 267 268 267 266 265 264 263 261 261 262 262 261 260 259 258 258 258 258 258 259 260 260 260 260 262 264 266 266 267 268 268 268 269 269 268 268 269 270 273 274 275 276
275 274 274 274 274 275 276 276 276 276 275 274 273 273 272 272 271 272 273 274 276 277 277 277 279 282 282 280 278 276 274 272 270 268 267 269 270 267 263 263 265 266 265 265 266 266 266 266 265 265 265 264 262 262 264 264 263 261 260 262 263 263 264 264 263 261 259 259 260 262 263 264 265 268 269 270 271 271 271 271 272 273 274 273 273 274
273 273 274 274 275 276 277 277 276 275 274 274 274 274 274 274 274 273 272 273 275 276 276 277 279 281 281 281 280 278 276 274 271 268 266 266 267 267 266 265 265 264 264 266 267 267 267 267 267 268 269 269 268 266 266 266 265 263 261 261 261 263 264 264 263 262 261 260 260 260 261 262 263 265 267 269 271 273 276 277 277 276 275 274 274 274
272 272 272 273 274 274 274 274 274 273 273 273 273 273 273 272 271 270 271 272 273 273 275 277 278 278 279 281 281 280 278 275 272 269 267 265 264 264 265 266 266 265 265 266 269 270 271 271 272 272 273 273 273 273 272 270 270 269 268 265 262 260 259 259 259 261 262 262 261 261 263 264 265 265 267 270 272 275 278 278 277 276 275 274 274 273
271 272 272 272 273 272 271 271 272 272 272 272 271 271 271 270 269 269 270 270 271 271 274 277 278 279 280 281 280 278 275 273 272 272 271 269 267 265 265 265 266 266 267 268 270 271 271 272 273 273 273 274 274 275 275 275 274 274 273 271 268 264 261 259 259 260 262 263 265 267 268 268 268 269 271 273 276 277 277 276 274 273 273 272 272 272
270 272 273 273 274 274 273 273 272 271 271 271 270 268 268 269 270 269 269 269 270 272 274 276 278 279 278 275 274 274 275 276 276 276 275 273 271 269 267 265 265 265 267 268 269 270 270 270 270 270 271 272 274 275 275 274 273 272 271 270 269 267 265 264 264 265 265 266 269 272 273 273 273 273 275 276 277 275 273 271 270 270 270 271 271 270
273 275 276 276 275 274 275 275 275 274 272 269 269 272 272 271 270 269 268 269 271 273 275 276 276 276 275 274 274 276 278 278 278 277 275 274 273 271 270 269 268 267 266 266 266 267 267 267 266 266 267 269 271 272 272 271 270 269 267 266 266 267 267 268 268 269 269 269 271 272 274 275 276 276 277 276 274 270 267 266 266 267 267 268 268 268
271 272 272 271 270 271 272 273 275 275 270 267 269 273 272 268 267 266 266 266 268 272 276 276 276 276 277 278 279 280 280 278 276 273 271 270 270 270 270 268 266 265 264 264 264 264 264 264 264 264 265 266 267 269 269 269 269 268 267 266 266 267 268 269 269 270 271 273 275 275 275 275 275 275 274 272 269 265 264 264 265 265 265 264 264 264
267 266 266 267 269 271 271 272 273 271 269 269 271 270 268 266 268 269 268 268 270 274 275 275 273 273 274 276 276 276 275 272 271 270 268 268 267 266 266 265 263 261 260 261 263 264 263 262 262 262 262 263 265 266 267 268 268 268 268 269 269 269 270 271 273 273 274 276 277 276 274 273 273 271 269 267 264 262 262 264 265 264 263 262 262 263
269 268 267 267 269 271 271 271 271 270 270 273 274 272 270 270 271 271 272 272 273 275 275 274 273 273 273 273 272 271 269 268 270 270 269 268 268 267 266 266 267 264 261 260 260 261 261 261 260 260 261 262 263 263 264 265 266 267 268 269 270 270 271 273 275 275 275 275 274 272 270 268 268 266 265 264 263 262 262 263 263 263 261 260 260 260
271 270 270 269 269 271 271 271 271 272 273 274 274 273 273 273 272 273 274 274 274 275 275 275 275 275 275 274 273 271 271 270 270 270 270 270 271 270 269 268 268 267 265 262 260 259 259 260 260 261 262 263 263 262 262 262 263 264 265 267 268 269 271 273 274 273 272 271 270 268 265 264 263 263 262 263 263 263 262 262 261 261 260 259 259 260
271 271 271 270 270 271 271 272 272 273 273 272 272 273 273 273 274 274 274 274 275 275 276 276 276 276 275 274 273 272 272 272 271 272 272 271 271 271 270 269 268 267 265 262 261 260 260 261 262 263 264 264 263 263 263 263 264 264 265 266 267 268 270 271 271 269 268 267 267 265 263 261 261 259 259 259 260 259 259 260 260 260 260 261 261 263
271 271 271 271 271 272 272 273 273 274 274 274 274 274 273 274 274 273 274 274 275 275 275 275 276 275 273 273 273 273 273 272 271 271 272 272 271 271 270 269 268 268 266 264 262 261 261 262 263 264 265 265 264 264 264 264 265 266 267 267 267 267 268 268 267 265 264 264 264 263 262 261 260 259 258 257 257 256 257 257 258 259 261 262 264 267
271 271 271 271 272 272 272 272 273 273 274 275 275 274 274 274 274 273 273 274 274 274 273 273 272 272 271 270 270 270 269 268 267 267 269 271 272 272 272 272 271 270 268 265 262 260 259 259 260 261 262 263 263 263 264 265 266 267 268 268 268 266 265 264 263 262 262 263 264 264 262 261 259 258 256 255 254 255 256 257 259 262 264 266 268 271
271 271 271 271 272 272 272 272 272 272 273 274 274 274 274 274 274 273 273 273 273 273 272 271 269 268 267 267 267 266 265 265 264 263 263 266 267 268 269 270 269 268 266 263 261 259 258 257 257 258 259 261 262 264 265 266 268 270 271 270 268 266 264 263 261 260 260 262 263 262 261 258 257 256 256 256 258 259 261 263 266 268 270 271 271 273
271 271 271 271 272 273 273 272 272 272 273 273 273 273 273 273 272 272 272 272 272 272 271 271 270 269 268 267 266 265 265 265 264 263 262 262 264 265 265 265 265 265 265 265 264 263 262 261 260 260 260 261 265 269 270 271 273 273 271 268 266 264 263 262 262 259 258 259 259 260 260 260 260 261 263 266 268 268 269 269 270 271 271 272 272 274
273 272 271 271 272 273 273 272 272 272 273 274 274 274 274 273 271 270 270 271 270 270 269 269 270 270 269 268 267 266 265 265 264 264 263 262 262 263 265 266 267 268 268 269 269 268 268 267 267 267 267 268 270 272 274 274 274 270 267 263 261 260 260 261 261 259 257 257 257 259 261 262 263 265 267 269 270 270 268 268 268 269 271 272 273 273
274 274 274 275 275 274 273 271 271 273 275 276 276 275 274 273 273 273 272 271 270 270 269 269 269 269 269 269 268 268 267 267 266 266 265 264 263 263 263 264 267 268 270 271 271 270 270 270 271 272 273 273 273 274 274 273 269 264 260 258 257 257 259 259 259 258 256 256 257 258 261 263 264 266 267 269 269 268 267 267 269 270 272 273 272 272
275 276 277 277 275 274 273 273 274 277 277 277 277 277 276 275 274 274 273 272 271 271 270 270 270 270 270 270 269 269 269 268 268 267 267 267 265 264 263 263 264 265 267 269 269 269 269 270 270 271 271 270 269 268 267 265 263 259 255 252 253 255 258 260 260 258 256 257 259 262 264 265 266 267 268 268 268 266 265 266 267 269 270 270 270 270
275 276 276 275 274 274 274 275 277 278 278 278 278 278 277 276 275 274 273 273 273 273 272 272 272 272 272 272 272 271 271 271 270 270 269 268 268 267 266 265 264 264 264 264 265 266 266 266 263 261 261 260 259 259 258 256 255 253 250 250 255 259 261 262 263 262 260 260 262 264 265 265 266 268 267 265 264 263 263 263 264 265 266 267 267 267
275 275 275 274 274 274 274 276 279 279 279 279 279 278 277 277 276 276 275 275 275 274 274 274 274 274 274 274 274 274 274 274 273 273 272 271 270 269 267 267 266 265 263 262 261 261 261 260 255 252 254 255 256 259 259 256 253 252 253 258 263 266 266 265 265 264 263 262 262 262 262 263 264 265 264 263 261 261 262 262 263 263 263 265 265 265
275 275 274 274 275 276 276 277 279 279 279 279 278 277 277 277 276 276 276 276 277 277 277 277 277 277 276 276 276 276 276 276 276 275 274 274 273 272 270 268 267 265 264 263 261 260 258 256 252 251 255 259 262 263 263 261 260 261 263 265 267 268 267 266 266 266 264 262 260 259 259 261 262 262 261 260 259 259 260 260 261 261 262 263 265 265
276 275 275 276 277 278 278 279 279 279 279 278 277 277 276 275 275 275 276 277 278 278 279 279 279 279 278 278 278 278 277 277 277 277 276 276 275 274 273 272 271 269 267 265 264 263 261 258 256 255 257 261 264 264 264 263 263 264 265 265 265 265 265 265 266 266 265 262 261 259 258 259 259 258 258 257 257 257 257 257 258 259 260 262 264 264
277 277 278 281 280 278 279 280 281 280 278 277 277 278 277 276 276 276 277 278 279 280 281 281 280 280 280 279 279 279 279 279 278 278 278 277 276 276 275 274 273 272 271 269 268 266 264 262 260 259 260 261 263 264 263 262 262 262 260 259 259 261 262 264 265 266 265 263 261 260 259 258 257 256 255 255 256 256 256 256 258 259 261 262 262 259
280 281 282 282 280 279 281 281 281 282 282 282 282 281 280 280 282 283 283 283 284 285 286 284 283 281 281 280 280 280 281 281 281 281 280 280 279 278 278 277 276 275 274 273 272 270 268 266 264 263 262 262 262 262 262 261 260 258 255 254 256 259 261 262 263 264 264 263 260 258 257 257 256 255 254 254 255 255 256 256 257 259 260 259 256 253
283 283 282 280 279 281 282 281 282 285 286 284 283 282 282 283 286 287 288 289 290 290 289 287 285 283 281 281 282 283 284 284 284 284 284 283 282 282 281 281 280 279 278 277 276 274 273 271 270 268 266 264 263 262 261 260 260 258 255 255 257 259 259 260 260 260 260 260 258 255 253 253 253 254 253 253 253 253 254 255 256 257 257 256 253 251
Height
5809 5806 5803 5807 5815 5818 5813 5807 5805 5805 5804 5800 5797 5795 5795 5793 5793 5798 5798 5799 5798 5787 5783 5786 5782 5779 5781 5784 5788 5792 5791 5790 5792 5793 5791 5791 5790 5788 5787 5787 5788 5787 5787 5787 5785 5783 5781 5780 5780 5779 5780 5779 5779 5779 5778 5779 5779 5778 5778 5779 5779 5779 5779 5778 5778 5777 5777 5776 5776 5775 5775 5775 5774 5774 5774 5775 5775 5775 5775 5775 5775 5775 5776 5776 5776 5775
5804 5800 5800 5808 5812 5809 5804 5802 5802 5801 5799 5796 5794 5792 5790 5790 5790 5793 5793 5794 5793 5782 5777 5780 5776 5774 5778 5779 5782 5785 5786 5786 5787 5787 5787 5786 5784 5782 5782 5783 5784 5783 5783 5782 5781 5779 5777 5775 5775 5775 5775 5775 5775 5774 5773 5774 5775 5774 5775 5775 5775 5774 5774 5774 5773 5772 5772 5772 5771 5770 5770 5770 5770 5770 5770 5771 5771 5770 5770 5771 5771 5771 5771 5771 5770 5770
5798 5794 5800 5805 5803 5800 5798 5799 5798 5795 5794 5791 5790 5788 5786 5787 5787 5785 5787 5788 5786 5779 5774 5775 5770 5767 5772 5774 5777 5780 5782 5782 5782 5781 5781 5781 5780 5779 5778 5778 5779 5779 5779 5778 5777 5775 5772 5770 5770 5770 5770 5770 5770 5770 5770 5770 5770 5770 5770 5770 5769 5769 5769 5769 5768 5768 5767 5766 5766 5765 5766 5765 5765 5766 5766 5766 5766 5766 5766 5766 5766 5766 5766 5765 5765 5765
5790 5790 5797 5798 5795 5794 5794 5793 5792 5790 5789 5788 5787 5785 5782 5785 5783 5779 5779 5780 5780 5775 5772 5771 5765 5760 5765 5769 5772 5777 5778 5778 5777 5776 5776 5776 5777 5777 5776 5774 5773 5774 5775 5774 5772 5771 5767 5765 5765 5765 5765 5765 5765 5765 5765 5765 5764 5765 5765 5765 5764 5764 5764 5763 5763 5762 5762 5761 5761 5761 5761 5761 5761 5761 5761 5761 5762 5762 5761 5761 5761 5761 5760 5760 5760 5759
5785 5787 5790 5791 5789 5789 5788 5787 5786 5784 5784 5783 5782 5781 5779 5781 5779 5775 5773 5772 5771 5770 5769 5768 5761 5754 5758 5762 5767 5774 5775 5774 5773 5772 5771 5773 5774 5772 5772 5771 5768 5768 5769 5768 5768 5766 5763 5761 5760 5760 5760 5759 5759 5760 5759 5759 5759 5760 5760 5760 5759 5759 5759 5758 5758 5757 5756 5756 5756 5756 5756 5756 5757 5757 5757 5757 5757 5757 5756 5756 5756 5756 5755 5755 5754 5754
5780 5784 5785 5785 5784 5783 5781 5780 5780 5778 5778 5778 5777 5777 5777 5776 5774 5771 5771 5767 5764 5764 5764 5764 5758 5752 5753 5756 5761 5769 5770 5768 5768 5768 5769 5771 5771 5767 5766 5767 5765 5764 5763 5763 5762 5761 5759 5757 5756 5755 5755 5754 5754 5754 5753 5754 5754 5755 5755 5754 5754 5754 5754 5753 5753 5752 5752 5752 5751 5751 5751 5752 5751 5751 5752 5752 5752 5751 5751 5751 5751 5751 5750 5749 5749 5749
5776 5781 5780 5779 5778 5776 5774 5774 5775 5775 5773 5772 5771 5773 5773 5771 5769 5768 5767 5763 5760 5758 5757 5757 5755 5749 5748 5751 5757 5761 5760 5760 5762 5763 5765 5767 5768 5764 5761 5761 5761 5760 5758 5757 5756 5755 5754 5753 5752 5751 5749 5748 5748 5748 5748 5749 5749 5749 5749 5749 5749 5749 5749 5748 5748 5748 5747 5747 5747 5746 5746 5746 5746 5747 5747 5746 5746 5746 5746 5746 5746 5745 5745 5744 5744 5743
5773 5776 5775 5773 5772 5770 5768 5770 5772 5770 5766 5765 5766 5767 5766 5765 5765 5763 5761 5759 5757 5755 5753 5750 5749 5747 5746 5747 5750 5750 5750 5752 5755 5757 5759 5761 5763 5762 5759 5756 5755 5755 5755 5753 5752 5751 5750 5748 5748 5747 5745 5743 5743 5742 5743 5743 5744 5743 5744 5744 5744 5743 5743 5743 5742 5742 5742 5742 5742 5741 5741 5741 5741 5742 5741 5740 5740 5740 5740 5740 5740 5740 5739 5739 5739 5738
5768 5768 5768 5767 5766 5765 5765 5767 5766 5763 5760 5761 5762 5760 5759 5759 5759 5758 5757 5755 5753 5751 5748 5745 5745 5746 5747 5746 5744 5740 5739 5743 5748 5750 5751 5753 5756 5758 5757 5754 5750 5750 5750 5750 5749 5747 5746 5745 5743 5742 5740 5738 5738 5737 5737 5738 5738 5738 5738 5738 5738 5738 5737 5737 5737 5736 5737 5737 5737 5736 5736 5736 5736 5736 5735 5735 5735 5735 5735 5735 5734 5734 5734 5734 5734 5733
5762 5762 5762 5760 5759 5761 5762 5761 5759 5757 5756 5756 5756 5753 5752 5752 5751 5751 5750 5749 5748 5745 5743 5742 5743 5744 5744 5744 5741 5736 5735 5737 5740 5742 5743 5744 5746 5750 5753 5751 5748 5746 5745 5745 5745 5743 5742 5740 5738 5737 5735 5733 5732 5732 5731 5732 5732 5732 5733 5732 5732 5732 5731 5731 5731 5730 5730 5730 5731 5731 5731 5731 5731 5730 5730 5730 5730 5730 5729 5729 5729 5729 5729 5729 5728 5727
5756 5755 5754 5753 5754 5755 5755 5753 5752 5752 5751 5750 5749 5748 5747 5745 5744 5743 5742 5742 5741 5739 5741 5741 5742 5743 5740 5738 5736 5734 5734 5733 5733 5735 5735 5736 5736 5739 5744 5746 5745 5744 5742 5739 5737 5738 5737 5735 5733 5732 5731 5729 5727 5727 5726 5726 5726 5725 5726 5726 5726 5726 5725 5725 5724 5724 5724 5724 5725 5725 5725 5725 5725 5724 5724 5724 5724 5724 5724 5724 5724 5723 5723 5723 5722 5721
5750 5748 5748 5749 5748 5747 5746 5746 5746 5746 5745 5744 5743 5742 5740 5738 5738 5735 5734 5735 5732 5734 5740 5739 5739 5740 5735 5731 5731 5732 5731 5731 5731 5729 5727 5728 5728 5728 5732 5737 5737 5738 5740 5737 5732 5730 5729 5728 5728 5727 5726 5725 5723 5722 5721 5720 5719 5719 5719 5719 5719 5719 5719 5718 5718 5718 5718 5718 5718 5719 5719 5719 5719 5718 5718 5718 5718 5718 5718 5717 5717 5717 5717 5717 5716 5716
5743 5743 5743 5742 5742 5742 5740 5739 5739 5739 5739 5738 5736 5735 5732 5731 5730 5727 5726 5726 5726 5731 5736 5733 5732 5730 5726 5726 5729 5729 5730 5730 5729 5726 5722 5721 5721 5720 5721 5724 5727 5728 5731 5734 5730 5725 5722 5719 5720 5721 5720 5719 5718 5717 5716 5714 5713 5713 5713 5713 5712 5712 5712 5711 5711 5711 5711 5712 5712 5712 5712 5712 5712 5712 5712 5712 5712 5711 5711 5711 5711 5711 5711 5710 5710 5710
5736 5738 5738 5735 5736 5737 5735 5733 5733 5733 5732 5730 5730 5729 5725 5725 5721 5717 5719 5719 5721 5727 5728 5725 5722 5718 5717 5722 5725 5727 5728 5727 5724 5723 5722 5718 5716 5715 5713 5713 5716 5718 5720 5726 5727 5723 5719 5714 5712 5713 5713 5712 5712 5711 5710 5709 5707 5707 5706 5706 5706 5705 5705 5705 5704 5705 5705 5705 5705 5705 5706 5705 5706 5706 5706 5705 5705 5705 5705 5705 5704 5704 5704 5704 5704 5703
5726 5731 5734 5730 5729 5731 5729 5727 5726 5725 5725 5723 5724 5722 5718 5719 5715 5710 5713 5714 5713 5716 5716 5714 5711 5709 5712 5717 5718 5720 5721 5719 5717 5716 5717 5716 5714 5711 5708 5704 5705 5706 5708 5713 5718 5718 5715 5711 5707 5706 5706 5705 5704 5703 5703 5702 5701 5700 5700 5699 5699 5699 5698 5698 5698 5698 5698 5698 5698 5699 5698 5699 5699 5699 5699 5699 5698 5698 5698 5698 5698 5697 5697 5697 5697 5696
5716 5722 5729 5723 5720 5724 5722 5720 5720 5717 5716 5716 5717 5713 5711 5715 5712 5705 5704 5705 5704 5702 5702 5703 5699 5701 5708 5710 5711 5714 5712 5711 5710 5708 5709 5709 5707 5706 5704 5700 5698 5697 5696 5697 5703 5709 5709 5707 5704 5701 5699 5698 5697 5696 5695 5694 5693 5692 5692 5692 5692 5692 5692 5692 5691 5691 5691 5691 5692 5692 5692 5692 5692 5692 5692 5692 5691 5691 5691 5691 5691 5691 5690 5690 5690 5689
5706 5713 5722 5717 5712 5715 5714 5713 5713 5709 5708 5709 5708 5707 5708 5709 5705 5698 5693 5695 5696 5687 5689 5696 5692 5693 5701 5701 5704 5707 5704 5704 5704 5703 5702 5699 5698 5698 5697 5696 5693 5692 5690 5687 5689 5694 5696 5698 5698 5696 5694 5692 5691 5690 5689 5688 5686 5685 5685 5685 5684 5685 5685 5686 5685 5686 5685 5685 5685 5685 5685 5685 5685 5685 5685 5685 5684 5684 5684 5684 5684 5684 5683 5683 5683 5682
5697 5700 5712 5713 5705 5705 5706 5704 5704 5702 5700 5699 5700 5703 5703 5698 5695 5692 5683 5682 5684 5675 5675 5686 5687 5688 5692 5690 5694 5699 5698 5698 5697 5695 5693 5690 5689 5689 5689 5689 5687 5685 5685 5683 5683 5683 5683 5684 5686 5687 5688 5686 5685 5683 5682 5681 5680 5678 5678 5677 5677 5677 5678 5678 5679 5679 5679 5679 5679 5678 5678 5678 5678 5678 5677 5677 5677 5677 5678 5677 5677 5676 5676 5676 5675 5675
5691 5688 5697 5706 5699 5693 5696 5696 5694 5694 5693 5690 5690 5694 5693 5688 5686 5685 5676 5671 5672 5665 5662 5670 5675 5679 5683 5684 5687 5690 5691 5691 5689 5685 5683 5682 5682 5680 5679 5680 5678 5677 5676 5675 5675 5675 5675 5675 5675 5675 5676 5677 5677 5675 5674 5673 5672 5671 5670 5670 5670 5670 5670 5672 5673 5672 5671 5671 5672 5671 5672 5672 5671 5671 5670 5670 5670 5670 5671 5670 5669 5669 5669 5668 5668 5668
5685 5678 5681 5695 5693 5683 5684 5687 5685 5684 5684 5681 5679 5680 5680 5678 5676 5673 5668 5665 5663 5657 5653 5655 5656 5662 5675 5684 5684 5682 5681 5680 5678 5676 5674 5674 5675 5674 5673 5670 5668 5667 5666 5664 5663 5663 5664 5666 5666 5666 5665 5665 5665 5665 5666 5666 5665 5663 5661 5661 5663 5662 5662 5665 5666 5665 5664 5663 5663 5664 5664 5664 5664 5664 5663 5663 5663 5663 5664 5663 5662 5661 5661 5660 5660 5660
5676 5670 5667 5678 5684 5677 5676 5678 5676 5675 5675 5672 5669 5669 5669 5669 5667 5661 5657 5658 5656 5649 5645 5643 5638 5644 5666 5680 5680 5675 5672 5668 5667 5667 5667 5668 5668 5666 5666 5663 5660 5658 5656 5654 5653 5653 5653 5653 5654 5657 5657 5656 5653 5653 5655 5658 5658 5656 5654 5653 5654 5655 5656 5657 5656 5656 5656 5656 5656 5657 5657 5656 5656 5656 5656 5656 5655 5656 5656 5655 5654 5653 5653 5652 5652 5651
5665 5660 5655 5660 5667 5669 5671 5671 5667 5664 5665 5663 5659 5659 5660 5660 5658 5652 5646 5649 5650 5641 5637 5634 5625 5628 5652 5670 5673 5670 5666 5662 5660 5659 5659 5660 5658 5655 5655 5654 5652 5649 5647 5644 5644 5644 5644 5643 5643 5645 5646 5646 5644 5643 5644 5648 5650 5650 5648 5646 5645 5647 5649 5649 5647 5646 5647 5648 5649 5650 5650 5648 5648 5648 5648 5647 5647 5648 5648 5646 5646 5645 5644 5645 5644 5643
5656 5651 5646 5646 5650 5655 5660 5662 5659 5655 5656 5654 5649 5650 5652 5651 5650 5644 5637 5640 5641 5633 5630 5627 5615 5615 5637 5659 5666 5664 5660 5657 5656 5653 5651 5649 5647 5645 5644 5644 5642 5640 5638 5635 5634 5634 5634 5634 5635 5635 5635 5636 5636 5634 5634 5637 5641 5642 5642 5640 5638 5639 5640 5640 5638 5638 5638 5639 5641 5642 5642 5641 5641 5640 5640 5640 5640 5640 5639 5638 5637 5636 5636 5636 5635 5634
5647 5641 5637 5636 5637 5640 5646 5652 5652 5649 5648 5644 5642 5646 5645 5642 5642 5637 5630 5630 5627 5621 5624 5619 5605 5606 5627 5646 5654 5654 5652 5651 5649 5648 5645 5640 5638 5636 5633 5632 5631 5629 5628 5627 5625 5625 5624 5625 5627 5626 5626 5626 5626 5624 5623 5625 5629 5631 5633 5633 5631 5630 5630 5629 5629 5629 5629 5630 5631 5632 5632 5633 5633 5632 5632 5632 5631 5631 5630 5629 5628 5628 5628 5627 5626 5625
5634 5632 5629 5627 5626 5627 5632 5639 5643 5645 5643 5637 5637 5642 5638 5635 5635 5628 5623 5620 5611 5610 5617 5608 5593 5603 5623 5633 5637 5642 5643 5643 5643 5642 5639 5633 5630 5628 5623 5620 5619 5618 5617 5617 5616 5615 5614 5615 5617 5618 5618 5617 5616 5614 5613 5614 5617 5619 5621 5621 5620 5620 5620 5618 5618 5619 5620 5621 5621 5622 5623 5623 5623 5623 5623 5622 5622 5621 5621 5619 5619 5619 5618 5618 5617 5616
5623 5622 5621 5618 5615 5616 5620 5626 5632 5635 5633 5627 5627 5630 5629 5629 5627 5620 5615 5609 5599 5601 5606 5595 5586 5597 5614 5620 5624 5630 5633 5634 5636 5635 5633 5628 5621 5618 5614 5608 5605 5605 5605 5606 5606 5606 5607 5608 5609 5610 5610 5609 5608 5606 5605 5606 5608 5609 5610 5609 5609 5609 5609 5607 5608 5609 5610 5611 5613 5614 5614 5614 5613 5613 5613 5612 5612 5612 5611 5610 5610 5610 5609 5608 5607 5606
5612 5611 5612 5609 5605 5606 5610 5615 5621 5622 5616 5612 5613 5615 5617 5618 5616 5613 5605 5596 5594 5593 5586 5584 5586 5588 5594 5605 5611 5617 5621 5622 5624 5627 5626 5621 5611 5604 5601 5595 5592 5594 5596 5597 5598 5598 5600 5601 5602 5601 5601 5601 5600 5599 5599 5598 5598 5599 5600 5600 5600 5599 5599 5599 5599 5599 5601 5602 5604 5605 5605 5605 5604 5603 5603 5602 5603 5602 5601 5601 5600 5600 5599 5598 5597 5596
5602 5598 5602 5601 5596 5598 5601 5603 5608 5609 5603 5601 5601 5601 5604 5605 5604 5601 5591 5587 5591 5582 5567 5576 5586 5577 5577 5590 5595 5599 5605 5606 5609 5613 5612 5609 5599 5589 5586 5586 5586 5588 5589 5589 5590 5590 5591 5591 5592 5592 5591 5590 5590 5591 5591 5590 5589 5589 5590 5591 5591 5590 5590 5590 5588 5588 5590 5591 5593 5595 5595 5595 5593 5593 5593 5593 5593 5592 5591 5591 5590 5589 5589 5588 5587 5587
5593 5588 5593 5594 5588 5590 5592 5591 5594 5595 5591 5591 5591 5589 5592 5594 5592 5587 5581 5581 5583 5569 5557 5569 5576 5567 5569 5578 5580 5583 5587 5588 5590 5593 5593 5592 5586 5580 5580 5581 5581 5581 5581 5581 5580 5580 5580 5581 5581 5581 5580 5579 5578 5578 5579 5579 5579 5579 5580 5581 5581 5580 5579 5578 5578 5578 5579 5580 5583 5585 5585 5584 5583 5583 5583 5583 5583 5582 5581 5581 5579 5579 5579 5579 5578 5577
5583 5578 5583 5585 5578 5578 5581 5581 5582 5582 5580 5579 5579 5579 5580 5580 5579 5577 5574 5574 5571 5560 5556 5560 5558 5557 5565 5568 5566 5568 5569 5570 5573 5575 5576 5576 5574 5574 5575 5574 5572 5571 5570 5570 5569 5568 5569 5569 5570 5570 5569 5568 5566 5566 5566 5567 5568 5568 5568 5569 5569 5569 5569 5567 5569 5571 5570 5570 5572 5573 5573 5573 5573 5573 5573 5573 5573 5572 5571 5570 5569 5569 5569 5569 5569 5568
5575 5570 5573 5575 5567 5564 5568 5570 5570 5570 5568 5565 5565 5568 5570 5568 5567 5567 5564 5564 5561 5554 5553 5553 5548 5548 5553 5553 5553 5555 5556 5558 5560 5561 5561 5560 5560 5561 5561 5560 5560 5559 5557 5556 5556 5556 5556 5557 5558 5558 5557 5555 5554 5554 5554 5555 5556 5556 5555 5555 5556 5557 5557 5557 5559 5562 5562 5562 5562 5560 5560 5560 5561 5562 5562 5563 5563 5562 5562 5561 5560 5560 5560 5560 5559 5558
5568 5563 5563 5564 5555 5551 5559 5560 5556 5557 5556 5551 5551 5557 5561 5559 5556 5554 5554 5554 5551 5546 5545 5544 5540 5535 5534 5536 5541 5545 5546 5546 5547 5548 5547 5545 5544 5546 5545 5545 5546 5545 5544 5543 5543 5543 5544 5544 5545 5545 5545 5544 5542 5541 5542 5543 5545 5545 5544 5544 5544 5544 5544 5545 5546 5548 5550 5551 5550 5548 5547 5547 5548 5549 5550 5551 5551 5551 5550 5549 5549 5550 5550 5550 5549 5547
5562 5556 5555 5555 5544 5541 5552 5552 5547 5546 5539 5536 5546 5552 5550 5549 5547 5543 5543 5543 5541 5538 5535 5532 5529 5525 5523 5525 5529 5533 5534 5534 5533 5534 5533 5532 5532 5533 5533 5532 5532 5531 5531 5530 5529 5530 5531 5532 5533 5533 5533 5532 5530 5529 5529 5529 5532 5533 5533 5533 5533 5533 5532 5532 5532 5533 5535 5536 5536 5535 5535 5534 5534 5536 5537 5537 5538 5538 5538 5537 5538 5539 5539 5538 5537 5536
5555 5550 5547 5546 5535 5530 5540 5544 5537 5528 5521 5526 5542 5545 5539 5538 5538 5534 5531 5530 5529 5529 5525 5519 5517 5515 5516 5518 5520 5522 5525 5523 5520 5520 5520 5520 5521 5523 5522 5521 5521 5520 5519 5518 5517 5517 5517 5519 5520 5521 5520 5520 5519 5518 5517 5517 5518 5520 5520 5520 5521 5520 5519 5519 5519 5519 5520 5521 5522 5522 5521 5521 5522 5523 5524 5524 5524 5525 5525 5526 5526 5527 5526 5526 5525 5525
5543 5541 5538 5537 5529 5521 5529 5532 5518 5508 5514 5526 5531 5530 5528 5528 5526 5522 5518 5516 5516 5516 5513 5508 5504 5502 5505 5508 5509 5510 5512 5511 5508 5507 5507 5507 5507 5509 5510 5509 5510 5510 5510 5508 5507 5506 5504 5505 5507 5508 5509 5508 5508 5507 5506 5506 5506 5508 5509 5509 5508 5507 5506 5506 5506 5506 5506 5507 5508 5509 5509 5509 5510 5511 5512 5512 5513 5513 5514 5514 5515 5515 5514 5514 5513 5514
5530 5529 5526 5524 5521 5515 5517 5517 5503 5498 5513 5521 5514 5513 5517 5516 5514 5513 5507 5501 5502 5503 5500 5496 5493 5491 5492 5494 5493 5493 5495 5496 5495 5493 5491 5491 5491 5493 5495 5496 5497 5497 5497 5497 5496 5495 5494 5493 5494 5495 5496 5497 5496 5495 5495 5494 5495 5496 5497 5497 5496 5495 5494 5494 5494 5495 5495 5495 5495 5495 5496 5497 5498 5500 5501 5502 5503 5503 5503 5503 5503 5503 5503 5502 5503 5503
5517 5516 5514 5511 5510 5508 5505 5502 5496 5494 5501 5505 5504 5504 5505 5503 5504 5503 5495 5488 5488 5489 5487 5484 5482 5480 5478 5477 5477 5478 5478 5479 5481 5479 5476 5475 5476 5476 5478 5480 5481 5482 5481 5481 5481 5482 5481 5480 5480 5481 5481 5482 5483 5482 5481 5482 5482 5483 5485 5485 5484 5483 5482 5482 5483 5483 5483 5483 5483 5483 5484 5485 5487 5488 5489 5491 5492 5492 5492 5492 5492 5493 5492 5493 5493 5493
5506 5504 5503 5498 5496 5499 5496 5489 5487 5485 5484 5489 5495 5495 5492 5492 5493 5489 5482 5477 5477 5477 5475 5473 5471 5469 5467 5465 5465 5465 5466 5466 5468 5469 5465 5462 5462 5463 5463 5465 5466 5466 5467 5466 5466 5467 5468 5468 5468 5467 5466 5467 5468 5468 5468 5469 5469 5470 5472 5472 5471 5471 5470 5470 5471 5471 5471 5470 5470 5471 5471 5472 5474 5476 5478 5479 5480 5480 5480 5481 5481 5482 5482 5482 5483 5483
5495 5493 5492 5487 5484 5487 5485 5478 5476 5475 5473 5476 5482 5482 5481 5481 5481 5477 5471 5466 5467 5468 5464 5462 5462 5459 5457 5456 5455 5455 5455 5454 5457 5460 5457 5453 5453 5453 5452 5453 5453 5453 5454 5454 5454 5454 5455 5455 5455 5455 5455 5454 5455 5455 5455 5456 5457 5458 5459 5459 5459 5458 5458 5458 5459 5459 5459 5459 5460 5460 5460 5461 5462 5464 5465 5467 5468 5468 5469 5470 5469 5470 5470 5470 5471 5471
5485 5483 5481 5476 5473 5476 5474 5468 5466 5466 5465 5467 5470 5472 5472 5471 5469 5466 5458 5454 5457 5458 5451 5448 5450 5449 5447 5446 5445 5445 5445 5443 5445 5450 5450 5446 5444 5444 5444 5443 5443 5442 5442 5441 5441 5441 5442 5442 5442 5443 5443 5443 5443 5444 5444 5444 5446 5446 5447 5448 5448 5447 5446 5447 5448 5449 5449 5449 5450 5449 5449 5449 5450 5451 5453 5455 5456 5457 5457 5458 5457 5458 5458 5458 5459 5460
5475 5474 5470 5466 5464 5465 5463 5457 5454 5454 5456 5460 5461 5461 5462 5461 5459 5454 5447 5443 5446 5445 5439 5434 5433 5434 5436 5435 5433 5433 5433 5431 5431 5436 5438 5437 5434 5433 5433 5432 5431 5430 5429 5428 5428 5429 5429 5430 5430 5430 5431 5430 5430 5431 5431 5431 5433 5434 5434 5435 5436 5435 5434 5435 5436 5437 5437 5438 5438 5437 5437 5437 5438 5439 5441 5442 5444 5445 5445 5446 5446 5446 5447 5447 5448 5449
5464 5463 5459 5457 5456 5455 5453 5448 5443 5441 5446 5450 5450 5451 5451 5448 5444 5442 5438 5434 5432 5431 5428 5423 5419 5419 5420 5420 5418 5418 5418 5418 5417 5419 5422 5424 5423 5421 5421 5419 5417 5417 5416 5415 5415 5415 5415 5416 5417 5416 5417 5417 5416 5416 5417 5417 5419 5421 5420 5421 5422 5421 5421 5422 5422 5423 5424 5425 5425 5425 5425 5425 5426 5428 5429 5431 5432 5433 5434 5435 5435 5436 5436 5437 5438 5439
5453 5449 5447 5449 5448 5444 5439 5436 5432 5433 5439 5441 5438 5439 5439 5434 5429 5428 5426 5422 5419 5417 5416 5413 5410 5408 5405 5403 5404 5403 5402 5403 5403 5402 5403 5406 5408 5408 5407 5405 5403 5402 5402 5401 5401 5401 5400 5401 5403 5403 5403 5404 5403 5402 5402 5402 5404 5406 5407 5408 5407 5407 5408 5409 5409 5409 5411 5412 5412 5413 5413 5414 5415 5417 5418 5419 5420 5421 5423 5423 5424 5425 5426 5426 5426 5427
5442 5439 5437 5437 5436 5430 5425 5423 5425 5427 5430 5430 5426 5425 5426 5423 5419 5416 5411 5407 5407 5406 5403 5400 5399 5397 5393 5390 5389 5388 5388 5388 5388 5387 5387 5388 5390 5391 5391 5390 5389 5388 5388 5387 5387 5386 5386 5387 5389 5390 5391 5391 5390 5389 5388 5386 5387 5391 5394 5394 5393 5392 5394 5395 5395 5396 5398 5399 5400 5401 5402 5402 5404 5405 5407 5408 5408 5410 5411 5412 5412 5414 5415 5416 5416 5416
5433 5433 5427 5422 5423 5420 5414 5414 5419 5419 5418 5418 5417 5414 5412 5409 5408 5403 5397 5394 5394 5394 5391 5388 5387 5386 5382 5378 5375 5374 5374 5374 5373 5373 5372 5372 5373 5374 5374 5374 5374 5373 5374 5374 5373 5372 5372 5373 5375 5376 5377 5379 5378 5375 5374 5372 5372 5377 5381 5380 5378 5377 5379 5380 5381 5383 5385 5386 5387 5388 5389 5390 5392 5393 5395 5396 5397 5398 5400 5401 5401 5403 5405 5406 5407 5407
5425 5425 5416 5410 5412 5410 5405 5407 5412 5410 5407 5408 5407 5404 5400 5396 5394 5391 5385 5383 5382 5381 5379 5376 5375 5374 5371 5367 5364 5362 5361 5360 5359 5358 5358 5357 5358 5360 5359 5359 5359 5358 5358 5359 5359 5358 5357 5358 5359 5360 5361 5363 5364 5361 5361 5361 5361 5363 5366 5366 5363 5362 5363 5365 5368 5370 5373 5374 5375 5376 5377 5378 5380 5382 5382 5384 5385 5386 5388 5389 5390 5392 5393 5394 5396 5397
5416 5415 5406 5402 5403 5399 5396 5403 5406 5400 5397 5398 5395 5393 5391 5387 5383 5380 5375 5372 5372 5370 5369 5366 5364 5362 5359 5356 5353 5350 5349 5348 5346 5344 5344 5343 5343 5345 5345 5345 5345 5344 5344 5343 5343 5342 5342 5342 5343 5343 5344 5347 5350 5348 5346 5347 5348 5348 5350 5351 5349 5347 5348 5350 5352 5355 5359 5362 5363 5364 5365 5366 5368 5369 5370 5371 5373 5374 5376 5378 5379 5380 5382 5384 5384 5385
5407 5404 5397 5395 5395 5390 5387 5394 5396 5391 5388 5387 5384 5382 5382 5378 5374 5371 5367 5364 5363 5362 5360 5358 5354 5351 5349 5346 5342 5338 5337 5337 5334 5331 5330 5329 5329 5330 5330 5329 5329 5328 5329 5329 5327 5326 5327 5327 5327 5326 5327 5331 5335 5334 5332 5333 5335 5335 5335 5336 5334 5332 5332 5335 5337 5340 5344 5349 5351 5351 5353 5354 5354 5356 5357 5359 5361 5362 5364 5366 5367 5369 5371 5373 5373 5374
5396 5392 5391 5389 5384 5380 5380 5384 5384 5379 5376 5376 5375 5373 5370 5367 5363 5361 5359 5357 5355 5353 5351 5349 5346 5342 5339 5336 5332 5328 5326 5326 5324 5319 5317 5316 5317 5316 5315 5314 5313 5312 5313 5313 5311 5310 5311 5311 5312 5311 5311 5315 5318 5318 5318 5320 5321 5323 5323 5321 5319 5317 5317 5319 5322 5324 5329 5335 5338 5338 5340 5340 5341 5343 5344 5346 5348 5350 5352 5354 5356 5358 5360 5362 5362 5363
5385 5383 5386 5380 5370 5369 5373 5375 5373 5367 5363 5365 5366 5363 5360 5357 5353 5352 5351 5348 5346 5343 5341 5338 5337 5334 5331 5327 5323 5319 5316 5315 5313 5308 5305 5305 5304 5303 5301 5300 5298 5298 5298 5297 5295 5294 5294 5294 5294 5295 5296 5299 5300 5300 5301 5302 5305 5308 5308 5304 5301 5302 5303 5304 5307 5310 5315 5320 5323 5325 5326 5326 5328 5330 5331 5333 5336 5337 5339 5342 5344 5346 5349 5350 5351 5351
5376 5374 5375 5369 5361 5361 5364 5365 5363 5359 5354 5355 5356 5353 5350 5348 5345 5343 5342 5339 5336 5334 5331 5328 5326 5325 5323 5319 5315 5310 5306 5304 5302 5298 5295 5294 5293 5291 5288 5286 5284 5284 5284 5281 5279 5278 5278 5278 5277 5277 5278 5281 5281 5281 5282 5283 5286 5290 5289 5285 5283 5284 5286 5288 5291 5296 5301 5306 5307 5309 5311 5312 5314 5317 5318 5320 5323 5324 5326 5329 5331 5334 5336 5338 5339 5340